Date,TemperatureHighF,TemperatureAvgF,TemperatureLowF,DewpointHighF,DewpointAvgF,DewpointLowF,HumidityHigh,HumidityAvg,HumidityLow,PressureMaxIn,PressureMinIn,WindSpeedMaxMPH,WindSpeedAvgMPH,GustSpeedMaxMPH,PrecipitationSumIn
2013-1-1,18,8,-2,5,1,-5,85,73,54,30.44,30.28,6,3,9,0.00
2013-1-2,29,20,10,27,16,5,93,85,75,30.28,30.14,11,5,16,0.00
2013-1-3,30,20,11,27,16,8,91,83,72,30.47,30.26,17,6,21,0.00
2013-1-4,36,26,12,25,19,9,91,78,62,30.41,30.26,12,6,17,0.00
2013-1-5,38,30,24,33,26,20,88,83,78,30.24,30.01,17,7,26,0.00
2013-1-6,30,22,14,21,16,10,86,78,68,30.39,30.18,10,5,26,0.00
2013-1-7,46,35,26,30,26,20,85,69,55,30.28,30.06,27,5,30,0.00
2013-1-8,47,37,30,34,30,25,85,76,59,30.14,29.89,15,5,22,0.00
2013-1-9,47,38,30,35,31,27,88,77,62,30.49,30.16,12,4,19,0.00
2013-1-10,40,35,31,37,31,25,98,85,64,30.44,29.79,11,4,19,0.04
2013-1-11,53,45,35,47,42,35,99,91,75,29.78,29.50,16,6,28,0.01
2013-1-12,41,23,15,38,16,8,89,74,66,30.17,29.65,21,10,35,0.00
2013-1-13,19,13,7,10,6,2,81,73,64,30.43,30.14,15,7,23,0.00
2013-1-14,30,18,8,13,8,4,84,66,43,30.59,30.44,9,3,13,0.00
2013-1-15,33,24,16,16,12,9,80,64,45,30.48,30.16,10,3,14,0.00
2013-1-16,48,34,22,35,25,12,88,70,58,30.25,29.97,15,8,22,0.00
2013-1-17,38,27,16,27,18,11,89,70,46,30.53,30.26,9,3,16,0.00
2013-2-9,37,34,29,32,30,27,94,88,81,30.23,29.90,16,8,20,0.09
2013-2-10,50,38,32,45,34,25,98,88,66,29.88,29.33,33,13,43,0.07
2013-2-11,33,30,28,25,24,22,83,77,71,30.20,29.68,22,11,39,0.00
2013-2-12,44,33,22,29,25,20,90,74,51,30.22,29.94,16,5,20,0.00
2013-2-13,50,38,25,33,28,22,89,70,45,29.94,29.74,14,6,19,0.00
2013-2-14,42,36,24,31,28,17,82,74,57,30.24,29.77,17,9,30,0.00
2013-2-15,27,22,16,16,13,8,81,68,51,30.41,30.25,12,6,21,0.00
2013-2-16,36,24,11,19,15,9,90,70,46,30.40,30.18,9,3,15,0.00
2013-2-17,48,34,20,28,23,17,88,68,45,30.17,29.71,18,6,22,0.00
2013-2-18,42,32,17,34,25,9,92,75,67,30.00,29.61,25,10,39,0.00
2013-2-19,23,16,9,10,6,2,77,64,47,30.46,30.01,27,13,36,0.00
2013-2-20,22,13,0,10,3,-4,81,65,51,30.55,30.40,8,4,18,0.00
2013-2-21,24,21,17,22,16,10,94,81,68,30.42,29.91,27,8,34,0.00
2013-2-22,28,24,21,23,20,17,94,87,79,30.08,29.85,11,5,17,0.08
2013-2-23,32,22,11,21,16,9,91,78,63,30.07,29.98,8,4,13,0.01
2013-2-24,41,28,14,28,22,11,92,78,61,30.15,30.01,7,2,9,0.01
2013-2-25,39,33,28,32,28,25,91,81,64,30.15,29.96,9,3,13,0.00
2013-2-26,32,30,28,30,28,26,96,92,82,29.95,29.76,18,9,28,0.02
2013-2-27,31,27,24,27,25,23,96,92,82,30.07,29.85,20,10,30,0.00
2013-2-28,32,27,23,25,23,20,89,85,76,30.25,30.07,20,8,26,0.01
2013-3-1,29,26,24,23,21,17,92,82,73,30.40,30.24,13,6,17,0.01
2013-3-2,32,25,17,21,18,14,87,76,62,30.42,30.26,9,3,15,0.00
2013-3-3,34,27,17,24,20,14,89,76,61,30.25,29.96,13,7,22,0.00
2013-3-4,38,33,29,30,28,24,95,84,72,30.01,29.83,17,8,24,0.00
2013-3-5,32,29,26,31,25,20,97,84,74,30.36,30.00,20,9,34,0.03
2013-3-6,33,26,19,23,20,16,90,80,66,30.51,30.37,16,5,24,0.00
2013-3-7,35,24,15,26,20,13,94,84,69,30.45,30.32,11,5,18,0.00
2013-3-8,43,34,22,34,28,21,94,82,69,30.36,30.10,14,7,20,0.09
2013-3-9,43,39,37,42,38,34,98,95,86,30.08,29.68,12,6,21,0.40
2013-3-10,38,34,30,38,33,29,98,97,94,29.81,29.69,20,7,24,0.29
2013-3-11,29,26,22,28,24,19,97,91,85,30.03,29.80,19,9,27,0.04
2013-3-12,33,26,20,27,22,17,90,83,75,30.33,30.03,20,9,35,0.05
2013-3-13,35,25,16,22,18,13,87,76,54,30.54,30.34,13,4,20,0.06
2013-3-14,50,38,27,38,30,21,87,74,59,30.39,30.13,12,4,15,0.00
2013-3-15,61,43,31,48,38,30,95,84,58,30.12,29.74,12,3,15,0.00
2013-3-16,37,32,28,35,28,22,94,83,69,30.26,29.84,17,9,26,0.00
2013-3-17,39,31,22,29,24,18,85,75,62,30.26,29.89,15,9,26,0.00
2013-3-18,34,30,23,32,24,16,97,80,63,30.07,29.79,28,8,34,0.11
2013-3-19,41,27,17,23,15,11,78,62,42,30.31,30.08,14,6,23,0.01
2013-3-24,29,29,28,28,27,27,96,94,92,30.05,29.98,18,10,23,0.03
2013-3-25,34,30,26,27,25,23,96,83,66,30.34,30.05,19,9,24,0.04
2013-3-26,36,29,20,25,21,16,86,72,58,30.43,30.34,15,5,20,0.00
2013-3-27,45,35,23,29,25,20,91,69,49,30.41,30.31,9,2,14,0.00
2013-3-28,56,42,28,36,31,26,90,68,45,30.36,30.25,14,4,18,0.00
2013-3-29,62,48,33,38,34,31,91,63,35,30.31,30.16,12,4,19,0.00
2013-3-30,60,51,45,52,44,36,94,79,61,30.15,29.89,12,4,20,0.08
2013-3-31,53,43,32,43,34,24,97,73,33,30.15,29.92,23,8,29,0.01
2013-4-1,39,30,22,22,18,17,82,62,43,30.37,30.16,16,8,22,0.00
2013-4-2,46,34,20,24,20,17,86,60,34,30.42,30.35,15,4,19,0.00
2013-4-3,50,37,26,24,23,21,84,58,35,30.47,30.31,12,3,15,0.00
2013-4-4,64,47,32,39,29,20,67,50,34,30.31,30.07,14,6,21,0.00
2013-4-5,61,48,33,38,32,28,83,57,34,30.23,29.86,14,6,21,0.00
2013-4-6,69,58,51,48,43,40,74,58,48,29.85,29.56,15,8,28,0.00
2013-4-7,69,49,37,46,40,35,94,76,44,29.95,29.76,15,5,21,0.00
2013-4-9,44,44,43,43,42,42,97,96,96,29.87,29.82,11,8,16,0.20
2013-4-10,42,40,39,40,39,38,98,96,93,29.95,29.77,16,6,29,0.87
2013-4-11,39,37,35,38,36,33,98,94,86,29.77,29.66,13,6,21,0.21
2013-4-12,40,36,34,34,31,26,95,84,71,30.02,29.68,14,8,25,0.00
2013-4-13,51,42,29,38,31,24,85,67,53,30.07,29.87,12,6,20,0.00
2013-4-14,68,54,43,54,46,37,91,77,57,29.85,29.44,15,8,33,0.17
2013-4-15,49,42,39,44,34,29,86,74,61,30.11,29.67,14,6,20,0.00
2013-4-16,49,41,31,35,32,28,90,72,55,30.30,30.11,10,5,17,0.00
2013-4-17,46,43,40,45,40,35,98,90,67,30.24,29.64,18,8,33,2.44
2013-4-18,42,37,34,41,35,29,97,92,83,29.80,29.58,19,10,30,0.91
2013-4-19,43,36,30,29,27,24,85,69,50,30.14,29.77,28,13,38,0.00
2013-4-20,47,37,25,29,25,20,89,64,38,30.34,30.15,12,4,17,0.00
2013-4-21,66,54,41,44,37,29,73,56,30,30.30,30.09,17,8,29,0.00
2013-4-22,66,53,37,50,46,35,96,80,48,30.20,29.93,15,6,30,0.33
2013-4-23,41,36,32,34,30,25,93,78,61,30.20,30.08,17,10,26,0.02
2013-4-24,54,40,25,39,28,22,90,66,36,30.24,30.08,17,6,33,0.03
2013-4-25,62,48,32,38,33,29,88,61,34,30.33,30.16,20,5,21,0.00
2013-4-26,64,57,51,50,45,38,83,66,56,30.22,30.12,17,7,29,0.00
2013-4-27,68,55,44,49,46,43,95,75,50,30.25,30.01,12,3,18,0.00
2013-4-28,74,60,45,53,49,43,94,70,45,30.02,29.76,11,4,19,0.00
2013-4-29,80,67,56,62,56,51,85,70,48,29.80,29.56,11,4,15,0.00
2013-4-30,83,74,62,63,56,48,71,53,44,29.83,29.55,22,8,31,0.00
2013-5-1,60,50,39,48,41,35,85,74,63,30.34,29.85,29,12,34,0.00
2013-5-2,40,34,32,36,33,31,97,95,89,30.50,30.32,20,11,30,1.65
2013-5-3,34,33,32,32,32,31,97,95,91,30.42,30.04,17,9,24,0.48
2013-5-4,48,40,34,46,39,32,98,97,95,30.12,29.95,14,7,21,0.36
2013-5-5,59,49,42,54,47,42,97,93,84,30.16,30.09,11,6,16,0.02
2013-5-6,72,59,46,56,50,45,98,76,49,30.14,30.02,11,4,16,0.00
2013-5-7,76,65,49,55,50,46,94,62,35,30.08,29.97,7,2,10,0.00
2013-5-8,68,61,52,60,55,49,95,81,60,30.01,29.93,6,2,12,0.13
2013-5-9,70,60,54,60,56,52,97,90,68,29.94,29.84,14,5,20,0.64
2013-5-10,54,50,48,52,49,47,95,93,91,30.02,29.94,13,8,20,0.00
2013-5-16,73,70,68,65,63,61,80,78,76,29.84,29.83,3,2,7,0.00
2013-5-17,79,71,63,65,62,60,92,75,57,29.92,29.83,8,2,17,0.00
2013-5-18,82,72,60,66,63,58,95,75,56,29.93,29.74,11,3,17,0.00
2013-5-19,85,72,60,67,62,58,96,74,45,29.78,29.53,16,5,39,0.81
2013-5-20,79,66,59,64,60,58,96,81,53,29.67,29.54,27,6,30,0.31
2013-5-21,69,62,58,59,54,49,92,75,56,29.69,29.57,11,5,25,0.00
2013-5-22,61,56,54,57,53,50,96,88,79,29.91,29.67,13,5,19,0.06
2013-5-23,69,60,52,52,49,44,95,71,41,30.27,29.92,13,6,19,0.00
2013-5-24,69,60,48,54,48,43,83,66,47,30.37,30.14,13,4,21,0.01
2013-5-25,60,55,51,56,51,49,95,87,74,30.24,30.12,17,7,27,0.44
2013-5-26,62,56,52,60,54,49,96,93,91,30.15,29.93,14,7,26,0.43
2013-5-27,74,65,58,64,61,57,98,87,66,30.01,29.71,13,3,32,0.73
2013-5-28,80,70,63,69,65,62,98,85,60,29.75,29.62,7,2,15,0.57
2013-5-29,80,70,64,71,64,59,96,84,67,29.78,29.65,13,4,21,0.46
2013-5-30,74,68,64,67,62,59,94,84,72,29.67,29.57,20,6,33,0.13
2013-5-31,74,68,61,65,62,56,97,83,71,29.70,29.63,15,5,22,0.00
2013-6-1,66,62,55,63,56,51,93,83,75,29.94,29.63,16,5,27,0.00
2013-6-2,66,58,53,51,48,45,85,69,52,30.09,29.94,16,5,27,0.00
2013-6-3,70,60,46,53,50,44,96,71,48,30.10,29.94,11,3,19,0.00
2013-6-4,66,61,55,63,57,52,95,87,78,30.05,29.95,12,4,21,0.20
2013-6-5,70,64,60,62,59,54,98,87,68,30.01,29.93,11,2,12,0.15
2013-6-6,70,61,51,58,54,49,94,78,57,29.99,29.92,11,3,18,0.00
2013-6-7,70,60,50,55,52,48,97,78,54,30.03,29.94,9,2,12,0.01
2013-6-8,72,62,50,61,56,49,96,81,61,29.94,29.77,14,4,20,0.12
2013-6-9,71,64,61,63,61,59,97,90,72,29.78,29.71,14,4,19,0.16
2013-6-10,77,67,60,66,62,59,98,87,67,29.91,29.76,5,2,13,0.01
2013-6-11,85,74,63,75,68,61,95,83,67,29.88,29.74,9,2,13,0.00
2013-6-12,90,76,65,75,69,58,95,78,59,29.88,29.68,15,6,31,0.12
2013-6-13,83,72,61,63,59,56,85,65,41,30.05,29.89,12,3,27,0.00
2013-6-14,74,67,63,67,62,59,95,83,69,30.04,29.85,12,4,28,0.71
2013-6-15,81,71,64,74,67,62,96,87,75,30.02,29.85,15,3,21,0.11
2013-6-16,86,75,66,70,63,55,96,70,39,29.96,29.90,7,2,14,0.00
2013-6-17,89,77,63,66,61,57,93,61,35,29.97,29.88,7,2,14,0.00
2013-6-18,85,74,61,64,59,55,85,62,40,30.01,29.94,9,2,13,0.00
2013-6-19,82,73,63,68,64,61,95,76,54,30.04,29.96,10,2,16,0.00
2013-6-20,86,77,67,70,66,62,86,71,56,30.00,29.89,16,4,22,0.00
2013-6-21,88,80,75,76,72,68,85,77,66,29.95,29.83,14,5,26,0.00
2013-6-22,89,82,76,75,72,66,82,72,62,29.97,29.81,13,4,21,0.00
2013-6-23,80,75,65,71,69,64,95,83,68,29.95,29.76,9,3,35,0.40
2013-6-24,79,72,70,73,69,66,97,91,81,29.93,29.80,10,3,16,0.23
2013-6-25,86,78,71,75,72,68,96,82,59,29.81,29.69,12,3,17,0.00
2013-6-26,90,81,74,80,72,66,91,75,49,29.83,29.63,17,3,19,0.00
2013-6-27,85,76,67,72,68,63,87,76,62,29.94,29.83,9,2,14,0.00
2013-6-28,85,77,69,65,60,54,80,58,36,29.89,29.77,21,7,29,0.00
2013-6-29,75,70,65,64,59,56,88,69,56,29.90,29.76,18,7,27,0.03
2013-6-30,73,63,57,60,57,55,92,80,61,30.02,29.90,10,3,15,0.00
2013-7-10,84,77,68,63,59,56,73,54,41,30.04,29.97,12,3,17,0.00
2013-7-11,82,72,61,62,59,57,92,68,46,30.11,30.00,9,3,13,0.00
2013-7-12,84,73,62,65,61,58,87,69,51,30.07,29.98,12,3,17,0.00
2013-7-13,79,72,65,68,62,56,79,72,65,30.04,29.99,10,3,18,0.00
2013-7-14,84,75,64,67,64,61,90,70,51,30.16,30.05,11,3,17,0.00
2013-7-15,86,77,67,73,68,63,88,75,60,30.21,30.11,10,3,16,0.00
2013-7-16,90,81,71,74,72,69,93,74,54,30.23,30.17,5,1,12,0.00
2013-7-17,92,82,72,74,72,69,91,73,50,30.28,30.15,6,1,12,0.00
2013-7-18,92,83,74,74,71,68,87,70,47,30.16,29.94,11,4,19,0.00
2013-7-19,93,84,76,75,70,64,74,63,45,29.90,29.80,10,4,18,0.00
2013-7-20,86,76,64,66,63,60,92,67,42,29.95,29.84,6,1,11,0.00
2013-7-21,77,71,64,70,66,62,95,85,73,29.90,29.79,5,1,15,0.21
2013-7-22,91,77,65,76,69,62,97,79,53,29.85,29.70,13,3,28,0.31
2013-7-23,75,69,63,64,61,58,95,79,61,29.99,29.80,13,3,18,0.01
2013-7-24,79,69,57,62,59,55,96,72,51,30.07,29.99,8,1,12,0.00
2013-7-25,83,73,60,69,64,58,92,75,57,30.06,29.95,9,3,22,0.00
2013-7-26,77,70,60,68,60,53,97,73,46,30.05,29.94,12,4,23,0.11
2013-7-27,70,61,51,54,50,47,94,69,47,30.10,30.00,13,3,20,0.00
2013-7-28,76,63,48,53,50,46,90,64,40,30.08,30.01,11,3,17,0.00
2013-7-29,72,63,52,60,56,51,95,79,59,30.13,30.06,11,2,13,0.02
2013-7-30,71,66,62,67,64,61,98,94,88,30.09,30.03,6,2,11,0.13
2013-7-31,84,73,64,69,66,63,98,80,55,30.12,30.01,7,2,10,0.01
2013-8-1,87,75,62,68,63,56,95,70,36,30.07,29.89,8,2,10,0.00
2013-8-2,83,72,65,69,64,59,89,76,58,30.00,29.88,12,2,20,0.00
2013-8-3,80,71,62,61,58,54,89,66,44,30.17,30.00,8,2,11,0.00
2013-8-4,79,70,56,62,59,54,95,71,51,30.19,30.05,10,2,14,0.00
2013-8-5,84,72,63,73,67,61,94,83,69,30.04,29.83,7,1,14,0.00
2013-8-6,89,75,67,75,70,66,97,86,60,29.89,29.76,9,2,34,0.71
2013-8-7,81,73,67,68,66,63,97,79,56,29.99,29.78,15,3,19,0.01
2013-8-8,80,70,60,66,62,57,91,76,56,30.02,29.95,4,1,8,0.00
2013-8-9,81,72,64,70,63,58,95,75,53,30.12,30.00,8,2,15,0.00
2013-8-10,83,71,59,64,60,56,94,71,48,30.20,30.08,4,1,10,0.00
2013-8-11,85,75,63,67,63,59,86,69,48,30.12,29.98,7,3,14,0.00
2013-8-12,81,72,66,69,64,57,97,77,50,30.05,29.96,9,3,17,0.68
2013-8-13,77,67,56,63,58,55,96,73,48,30.17,30.05,6,1,10,0.00
2013-8-14,74,65,55,57,54,52,93,71,48,30.23,30.12,5,1,9,0.00
2013-8-15,69,62,58,60,56,53,94,80,68,30.16,30.10,6,1,14,0.08
2013-8-16,75,65,54,59,56,53,94,74,52,30.21,30.14,7,2,11,0.00
2013-8-17,79,67,54,62,57,53,97,72,48,30.23,30.12,7,1,12,0.00
2013-8-18,80,69,56,63,59,54,95,72,46,30.18,30.06,9,1,11,0.00
2013-8-19,83,71,60,68,63,58,93,77,55,30.09,29.97,12,2,16,0.00
2013-8-20,88,77,68,70,66,63,86,71,53,29.99,29.91,14,4,20,0.00
2013-8-21,90,80,72,71,68,66,84,69,51,29.99,29.93,9,4,22,0.00
2013-8-22,79,75,70,71,69,67,93,81,74,30.09,29.97,7,1,14,0.00
2013-8-23,86,75,66,75,70,65,98,85,63,30.10,30.00,9,3,13,0.00
2013-8-24,89,80,71,74,71,68,91,75,57,30.12,30.02,10,3,15,0.00
2013-8-25,93,82,72,73,69,66,82,66,44,30.14,30.03,15,4,22,0.00
2013-8-26,95,84,72,75,71,68,90,67,43,30.08,29.93,10,4,17,0.00
2013-8-27,95,85,77,73,70,69,78,64,47,29.94,29.84,14,5,23,0.00
2013-8-28,98,84,72,72,68,66,79,61,38,29.96,29.89,7,3,17,0.00
2013-8-29,92,81,70,76,71,66,90,73,55,30.01,29.89,5,1,14,0.00
2013-8-30,100,86,73,76,72,66,89,67,33,29.89,29.75,8,2,17,0.00
2013-8-31,92,80,68,74,68,61,95,71,40,29.82,29.74,6,2,9,0.00
2013-9-1,82,74,66,69,64,59,95,74,47,29.95,29.72,24,5,28,0.36
2013-9-2,79,67,55,60,56,52,96,72,42,30.06,29.95,8,3,14,0.00
2013-9-3,82,67,51,61,57,50,97,73,44,30.12,30.02,5,1,9,0.00
2013-9-4,90,76,61,66,61,56,88,63,40,30.15,30.05,5,1,13,0.00
2013-9-5,87,77,67,69,66,63,91,70,52,30.17,30.09,4,1,9,0.00
2013-9-6,89,78,65,67,63,61,87,63,40,30.11,29.92,8,2,15,0.00
2013-9-7,95,81,73,73,68,62,83,67,46,29.93,29.81,10,3,19,0.00
2013-9-8,87,78,69,75,72,68,96,83,69,29.90,29.79,10,3,17,0.00
2013-9-9,98,84,71,71,66,63,95,61,32,29.84,29.76,19,4,24,0.00
2013-9-10,95,84,73,67,65,62,70,54,38,29.97,29.84,16,5,26,0.00
2013-9-11,86,77,70,72,68,65,95,74,57,30.07,29.96,7,2,16,0.00
2013-9-12,78,70,60,64,53,44,84,58,31,30.18,30.04,13,4,21,0.00
2013-9-13,72,62,52,50,48,46,88,63,40,30.25,30.11,8,2,13,0.00
2013-9-14,75,62,46,50,45,42,88,58,33,30.14,29.92,11,2,17,0.00
2013-9-15,68,64,60,64,57,48,95,78,51,30.22,29.86,14,5,23,0.40
2013-9-16,62,57,52,55,53,51,96,87,77,30.37,30.24,12,3,17,0.00
2013-9-17,66,58,54,64,57,52,98,95,92,30.27,29.99,9,3,13,1.32
2013-9-18,88,76,65,71,68,63,95,78,54,30.00,29.74,10,4,26,0.00
2013-9-19,84,73,62,71,67,61,98,84,65,29.86,29.69,19,4,29,1.09
2013-9-20,70,61,53,60,52,48,94,74,53,30.00,29.87,10,4,21,0.00
2013-9-21,72,58,44,50,46,42,95,68,38,30.05,29.92,5,1,9,0.00
2013-9-22,77,63,50,57,52,46,86,70,50,29.99,29.88,8,2,17,0.00
2013-9-23,75,62,50,56,52,48,92,70,45,29.96,29.83,15,4,23,0.00
2013-9-24,70,62,55,62,56,51,88,81,70,29.90,29.83,12,3,13,0.00
2013-9-25,76,65,54,62,57,51,92,77,60,29.95,29.82,5,2,13,0.00
2013-9-26,82,70,58,66,61,57,97,77,53,29.93,29.84,10,4,21,0.01
2013-9-27,84,73,65,66,63,61,89,72,46,29.95,29.85,11,3,21,0.00
2013-9-28,69,62,50,65,58,47,95,86,70,30.05,29.77,11,3,20,0.17
2013-9-29,73,59,47,51,47,44,91,68,37,30.10,29.94,8,2,16,0.01
2013-9-30,76,62,49,59,52,47,93,71,42,29.95,29.76,7,3,20,0.00
2013-10-1,83,70,57,60,57,53,92,68,43,29.96,29.80,7,2,17,0.00
2013-10-2,83,70,59,67,60,52,82,70,56,30.01,29.85,8,2,14,0.00
2013-10-3,77,70,66,67,64,63,96,83,64,29.86,29.75,7,2,13,0.04
2013-10-4,78,69,62,72,66,60,97,91,76,29.87,29.72,16,5,38,1.86
2013-10-5,69,54,46,60,42,36,83,66,48,29.94,29.81,17,5,28,0.00
2013-10-6,49,46,42,48,42,37,95,86,68,29.96,29.77,11,4,20,0.10
2013-10-7,74,58,42,50,45,39,92,65,35,30.09,29.96,11,3,17,0.00
2013-10-8,76,62,51,50,47,44,79,60,36,30.08,29.98,15,4,25,0.00
2013-10-9,74,61,49,53,50,47,92,69,42,30.11,30.03,10,2,16,0.00
2013-10-10,76,62,47,58,50,44,91,69,39,30.07,29.90,8,2,15,0.00
2013-10-11,72,65,56,64,59,52,90,82,73,29.90,29.73,14,4,22,0.00
2013-10-12,67,57,46,54,42,37,87,61,35,30.26,29.85,14,3,17,0.00
2013-10-13,64,51,38,42,38,34,87,62,37,30.47,30.28,5,1,10,0.00
2013-10-14,65,54,40,49,40,34,80,63,41,30.38,29.84,15,5,27,0.02
2013-10-15,59,51,46,57,46,42,95,83,72,29.99,29.78,15,7,28,0.20
2013-10-16,51,46,41,44,42,38,92,86,76,30.06,29.99,8,3,17,0.00
2013-10-17,63,48,37,44,39,35,96,75,41,30.00,29.87,13,3,18,0.00
2013-10-18,49,43,36,40,35,32,92,74,51,30.11,30.00,9,4,19,0.00
2013-10-19,59,46,34,39,34,30,91,66,35,30.02,29.83,15,5,23,0.00
2013-10-20,62,49,38,46,40,34,87,72,52,29.96,29.75,8,2,17,0.00
2013-10-21,51,42,36,38,32,28,88,68,45,30.12,29.98,12,4,24,0.00
2013-10-22,43,40,36,39,36,30,93,85,74,30.13,29.89,10,4,17,0.02
2013-10-23,42,36,31,36,33,29,96,88,73,30.21,30.12,8,2,12,0.03
2013-10-24,47,37,30,32,30,28,91,77,55,30.43,30.22,7,3,19,0.00
2013-10-25,56,42,27,33,29,24,90,63,41,30.47,30.10,15,5,28,0.00
2013-10-26,52,45,35,35,31,28,79,59,41,30.20,30.00,17,6,32,0.00
2013-10-27,63,45,29,36,31,26,88,63,36,30.19,29.90,12,2,19,0.00
2013-10-28,54,45,36,40,36,31,87,72,55,30.31,30.03,13,5,18,0.00
2013-10-29,56,47,40,51,42,36,93,84,74,30.30,30.04,10,6,17,0.01
2013-10-30,62,56,52,61,55,51,98,97,94,30.04,29.68,10,4,17,0.85
2013-10-31,52,45,41,51,43,40,97,92,81,29.69,29.49,8,4,18,0.00
2013-11-1,56,47,39,42,39,36,92,76,52,29.92,29.56,11,6,24,0.00
2013-11-2,54,46,40,41,37,33,89,73,47,30.17,29.92,12,5,18,0.00
2013-11-3,55,47,35,38,35,32,87,66,43,30.18,29.93,15,5,26,0.00
2013-11-4,55,50,46,48,43,38,91,78,64,30.18,29.93,16,4,18,0.00
2013-11-5,57,49,43,56,46,41,98,91,80,30.20,29.81,18,4,18,0.00
2013-11-6,45,38,32,40,32,28,96,82,56,30.33,29.88,18,8,24,0.00
2013-11-7,47,36,29,36,29,24,95,77,53,30.39,30.29,12,4,21,0.01
2013-11-8,60,45,30,38,31,24,79,60,40,30.36,29.84,17,5,32,0.02
2013-11-9,58,49,39,41,36,31,76,63,44,30.34,29.90,14,7,22,0.00
2013-11-10,37,36,36,30,30,29,77,76,76,30.37,30.35,6,5,10,0.00
2013-11-12,24,22,20,13,12,11,69,65,61,30.76,30.70,3,1,8,0.01
2013-11-13,50,35,21,26,18,12,69,51,38,30.67,30.12,15,6,25,0.21
2013-11-14,52,43,36,32,27,21,67,53,42,30.10,29.94,13,5,21,0.01
2013-11-15,57,44,32,39,34,28,85,69,46,29.96,29.75,12,3,17,0.00
2013-11-16,68,57,43,58,50,39,89,78,55,29.75,29.33,16,6,34,0.03
2013-11-17,55,48,39,49,42,35,95,82,65,30.00,29.28,13,5,23,0.00
2013-11-18,48,39,32,35,32,29,90,77,59,30.32,30.02,12,5,21,0.00
2013-11-19,56,43,32,34,31,28,88,65,39,30.31,30.04,18,7,26,0.00
2013-11-20,46,40,35,38,34,28,95,79,49,30.04,29.92,12,5,18,0.00
2013-11-21,38,31,25,37,30,23,97,95,92,30.51,30.05,13,6,20,0.00
2013-11-22,25,20,16,22,16,11,94,83,69,30.74,30.52,14,5,24,0.00
2013-11-23,18,13,7,13,7,3,85,77,66,30.95,30.68,14,6,19,0.00
2013-11-24,28,17,4,14,8,1,88,69,48,30.87,30.37,10,4,20,0.00
2013-11-25,37,30,25,29,22,14,87,73,59,30.36,30.17,13,6,23,0.04
2013-11-26,29,24,17,25,16,10,89,71,52,30.46,30.22,23,8,31,0.00
2013-11-27,28,20,9,16,11,6,87,69,53,30.51,30.17,11,4,13,0.01
2013-11-28,32,26,20,19,17,15,80,68,58,30.60,30.15,16,5,24,0.00
2013-11-29,40,27,12,27,20,10,91,75,56,30.61,30.31,9,3,16,0.01
2013-11-30,54,41,32,34,30,26,84,67,46,30.30,30.11,11,3,16,0.00
2013-12-1,41,34,26,30,28,24,90,79,64,30.22,29.98,7,2,9,0.00
2013-12-2,53,40,31,41,34,28,89,80,61,29.96,29.60,10,3,18,0.00
2013-12-3,40,38,35,40,37,34,98,96,87,29.72,29.58,5,2,11,0.00
2013-12-4,38,30,18,37,29,14,98,94,83,30.00,29.59,15,5,24,0.00
2013-12-5,18,13,8,13,6,1,82,74,66,30.53,30.03,15,9,26,0.00
2013-12-6,13,7,1,2,-1,-4,78,70,60,30.81,30.52,12,7,20,0.00
2013-12-7,12,5,-4,3,-2,-8,82,70,52,30.91,30.65,9,3,15,0.00
2013-12-8,18,15,11,15,10,3,92,83,68,30.64,30.12,13,5,17,0.00
2013-12-9,13,4,-1,10,-1,-5,90,78,64,30.43,30.20,16,6,20,0.00
2013-12-10,22,18,6,15,9,-1,80,70,59,30.35,30.13,19,7,28,0.00
2013-12-11,25,9,2,22,2,-4,92,75,61,30.74,30.31,16,6,26,0.00
2013-12-12,31,18,4,20,10,-2,87,71,60,30.63,30.23,14,4,16,0.00
2013-12-13,32,23,15,26,20,12,91,86,79,30.23,30.02,8,2,14,0.01
2013-12-14,24,20,15,20,16,11,93,87,79,30.27,30.13,16,6,21,0.00
2013-12-15,19,15,10,12,9,6,86,79,71,30.26,30.13,11,2,18,0.00
2013-12-16,32,22,14,27,18,11,93,88,81,30.21,30.08,9,4,12,0.00
2013-12-17,37,30,23,28,22,14,90,72,50,30.30,30.18,20,7,31,0.01
2013-12-18,50,37,22,34,27,14,79,66,52,30.25,29.81,17,4,27,0.00
2013-12-19,39,32,28,34,29,25,95,88,78,29.91,29.80,11,5,16,0.00
2013-12-20,28,23,20,26,22,18,95,94,92,30.00,29.88,11,5,16,0.00
2013-12-21,25,22,19,23,19,17,95,91,86,29.99,29.84,12,5,17,0.00
2013-12-22,24,18,6,23,15,3,95,88,82,30.41,29.86,18,8,22,0.00
2013-12-23,8,2,-6,-1,-6,-14,84,70,57,30.70,30.51,13,6,21,0.00
2013-12-24,18,3,-14,16,-4,-19,93,75,66,30.71,30.34,11,4,19,0.00
2013-12-25,35,25,18,30,21,16,94,86,74,30.35,30.24,12,5,27,0.01
2013-12-26,38,29,20,28,23,15,86,77,65,30.32,30.17,13,5,22,0.03
2013-12-27,49,35,21,30,26,18,89,70,48,30.32,30.15,13,5,26,0.00
2013-12-28,50,41,28,33,30,24,87,66,50,30.13,29.83,13,6,33,0.00
2013-12-29,26,9,0,22,1,-7,85,69,45,30.44,30.02,28,12,36,0.00
2013-12-30,17,8,-2,14,3,-8,87,77,58,30.44,30.24,12,3,18,0.00
2013-12-31,16,11,6,10,6,3,86,81,75,30.42,30.25,15,5,18,0.00
2014-1-1,10,7,4,6,4,0,88,84,81,30.49,30.29,12,6,18,0.00
2014-1-2,8,2,-5,0,-3,-9,83,77,66,30.61,30.46,10,5,15,0.00